Flag for Germany Weather past 2 weeks in Cologne, North Rhine-Westphalia, Germany

37 °F

Passing clouds.

Feels Like: 35 °F
Forecast: 33 / 42 °F
Wind: 3 mph from North

Location: Koeln / Bonn

Current Time: Nov 26, 2015 at 7:38:08 PM

Latest Report: Nov 26, 2015 at 7:20 PM

Visibility: N/A

Pressure: 30.15 "Hg

Humidity: 100%

Dew point: 37 °F

Location of CologneLocation

Historic Weather in Cologne — Graph


Cologne temperature yesterday

Maximum temperature yesterday: 45 °F (at 1:20 PM)
Minimum temperature yesterday: 34 °F (at 12:20 AM)
Average temperature yesterday: 40 °F

Past Weeks' High & Low Weather Summary

High61 °F (Nov 12, 11:20 AM)100% (Nov 14, 11:20 PM)30.33 "Hg (Nov 14, 11:20 PM)
Low32 °F (Nov 24, 5:20 AM)59% (Nov 18, 9:50 AM)29.39 "Hg (Nov 21, 1:50 PM)
Average47 °F84%29.95 "Hg
* Reported Nov 11 6:20 PM — Nov 26 6:20 PM, Cologne, Weather by CustomWeather, © 2015

Note: Actual official high and low records may vary slightly from our data, if they occured in-between our weather recording intervals... More about our weather records


Cologne weather history for previous 24 hours

Time TempWeatherWind HumidityBarometerVisibility
6:20 PM
Thu, Nov 26
37 °FPassing clouds.6 mph100%30.12 "HgN/A
5:50 PM37 °FPassing clouds.5 mph100%30.12 "HgN/A
5:20 PM37 °FFog.3 mph100%30.12 "HgN/A
4:50 PM39 °FFog.3 mph93%30.12 "HgN/A
4:20 PM41 °FPassing clouds.2 mph87%30.09 "HgN/A
3:50 PM43 °FPassing clouds.2 mph81%30.09 "HgN/A
3:20 PM43 °FPassing clouds.2 mph81%30.09 "HgN/A
2:50 PM45 °FPassing clouds.1 mph81%30.07 "HgN/A
2:20 PM45 °FPassing clouds.1 mph81%30.07 "HgN/A
1:50 PM43 °FPassing clouds.2 mph87%30.07 "HgN/A
1:20 PM43 °FScattered clouds.1 mph87%30.07 "HgN/A
12:50 PM41 °FScattered clouds.1 mph87%30.07 "HgN/A
12:20 PM39 °FScattered clouds.3 mph93%30.07 "HgN/A
11:50 AM39 °FScattered clouds.3 mph93%30.04 "HgN/A
11:20 AM39 °FPartly sunny.3 mph93%30.04 "HgN/A
10:50 AM39 °FPartly sunny.2 mph100%30.04 "HgN/A
10:20 AM39 °FPartly sunny.5 mph100%30.01 "HgN/A
9:50 AM37 °FPartly sunny.6 mph100%30.01 "HgN/A
9:20 AM37 °FPartly sunny.3 mph100%30.01 "HgN/A
8:50 AM37 °FPartly sunny.6 mph100%29.98 "HgN/A
8:20 AM37 °FPartly sunny.6 mph100%29.98 "HgN/A
7:50 AM37 °FPassing clouds.6 mph100%29.95 "HgN/A
7:20 AM37 °FPassing clouds.6 mph100%29.95 "HgN/A
6:50 AM37 °FPassing clouds.7 mph100%29.92 "HgN/A
6:20 AM39 °FPassing clouds.8 mph100%29.92 "HgN/A
5:50 AM39 °FPassing clouds.9 mph100%29.89 "HgN/A
5:20 AM39 °FPartly cloudy.7 mph100%29.89 "HgN/A
4:50 AM39 °FPartly cloudy.10 mph100%29.89 "HgN/A
4:20 AM39 °FPassing clouds.7 mph100%29.86 "HgN/A
3:50 AM39 °FPassing clouds.8 mph100%29.86 "HgN/A
3:20 AM39 °FPassing clouds.8 mph100%29.86 "HgN/A
2:50 AM39 °FSprinkles. Partly cloudy.8 mph100%29.83 "HgN/A
2:20 AM41 °FSprinkles. Partly cloudy.6 mph100%29.83 "HgN/A
1:20 AM41 °FScattered showers. Passing clouds.7 mph100%29.83 "HgN/A
12:50 AM41 °FSprinkles. Partly cloudy.6 mph100%29.83 "HgN/A
12:20 AM41 °FPartly cloudy.7 mph100%29.80 "HgN/A
11:50 PM
Wed, Nov 25
41 °FSprinkles. Partly cloudy.6 mph100%29.80 "HgN/A
11:20 PM41 °FPassing clouds.5 mph100%29.80 "HgN/A
10:50 PM39 °FSprinkles. Passing clouds.3 mph100%29.80 "HgN/A
10:20 PM41 °FSprinkles. Partly cloudy.6 mph93%29.80 "HgN/A
9:50 PM41 °FPartly cloudy.3 mph93%29.77 "HgN/A
9:20 PM41 °FPassing clouds.7 mph93%29.77 "HgN/A
8:50 PM41 °FPartly cloudy.7 mph93%29.77 "HgN/A
8:20 PM41 °FPartly cloudy.7 mph93%29.77 "HgN/A
7:50 PM41 °FPartly cloudy.7 mph93%29.74 "HgN/A
7:20 PM43 °FPartly cloudy.8 mph87%29.74 "HgN/A
Weather by CustomWeather, © 2015

See weather overviewHow to use our weather pages